Location: A�t Bou Chrif
(32.7193°N, 5.2385°W)
Time: 00:41:08
(UTC+00:00)

SL-4 R/B - Pass Details

Date: 08 August 2020
Orbit: 428 x 665 km, 51.6° (Epoch: 18 September)

Event Time Altitude Azimuth Distance (km) Brightness Sun altitude
Rises 20:37:15 0° 241° (WSW) 2,758 6.0 -16.8°
Reaches altitude 10° 20:39:40 10° 248° (WSW) 1,820 5.1 -17.3°
Maximum altitude 20:43:35 41° 319° (NW) 763 3.2 -18.0°
Drops below altitude 10° 20:47:13 10° 31° (NNE) 1,690 4.5 -18.6°
Sets 20:49:24 0° 39° (NE) 2,534 5.4 -19.0°
